This demonstration page uses our WeatherBlox Daily Observations layout. Learn more.

Left ArrowRight Arrow

39.92423, -83.80882

Hourly Observations for January 7, 2017

Temp ( °F °C ) Dew Point ( °F °C ) Humidity (%) Winds ( mph kmh ) Pressure ( in mb ) Visibility ( mi km ) Precip ( " mm )
12:56 am 00:56 Clear 1 -17.2 -4 -20 79 79 WNW 6 9 30.42 1030 10 16.0934 0 0
1:56 am 01:56 Clear 3 -16.1 -2 -18.9 79 79 WNW 7 11 30.42 1030 10 16.0934 0 0
2:56 am 02:56 Clear 3 -16.1 -2 -18.9 79 79 WNW 6 9 30.45 1031 10 16.0934 0 0
3:56 am 03:56 Clear 3 -16.1 -2 -18.9 79 79 NW 5 7 30.46 1031 10 16.0934 0 0
4:56 am 04:56 Clear 2 -16.7 -3 -19.4 80 80 WNW 3 6 30.46 1032 10 16.0934 0 0
5:56 am 05:56 Clear 2 -16.7 -3 -19.4 80 80 NW 5 7 30.46 1032 10 16.0934 0 0
6:56 am 06:56 Clear 0 -17.8 -5 -20.6 79 79 WNW 5 7 30.48 1032 10 16.0934 0 0
7:56 am 07:56 Clear -3 -19.4 -6 -21.1 86 86 W 5 7 30.52 1033 10 16.0934 0 0
8:56 am 08:56 Mostly Cloudy 1 -17.2 -2 -18.9 87 87 W 6 9 30.53 1034 10 16.0934 0 0
9:12 am 09:12 Partly Cloudy 5 -15 1 -17 85 85 W 8 13 30.56 1035 10 16.0934 0 0
9:56 am 09:56 Mostly Sunny 9 -12.8 1 -17.2 70 70 WNW 6 9 30.53 1034 10 16.0934 0 0
10:56 am 10:56 Sunny 13 -10.6 1 -17.2 59 59 WNW 9 15 30.55 1035 10 16.0934 0 0
11:56 am 11:56 Sunny 16 -8.9 1 -17.2 51 51 WNW 7 11 30.53 1034 10 16.0934 0 0
12:56 pm 12:56 Sunny 16 -8.9 1 -17.2 51 51 W 9 15 30.51 1033 10 16.0934 0 0
1:52 pm 13:52 Mostly Cloudy 16 -9 1 -17 53 53 W 12 19 30.5 1033 10 16.0934 0 0
1:56 pm 13:56 Mostly Cloudy 16 -8.9 2 -16.7 54 54 WNW 12 19 30.5 1033 10 16.0934 0 0
2:22 pm 14:22 Partly Cloudy 16 -9 1 -17 53 53 W 13 20 30.5 1033 10 16.0934 0 0
2:56 pm 14:56 Sunny 16 -8.9 1 -17.2 51 51 W 13 20 30.5 1033 10 16.0934 0 0
3:56 pm 15:56 Sunny 13 -10.6 0 -17.8 56 56 WNW 14 22 30.52 1033 10 16.0934 0 0
4:56 pm 16:56 Sunny 10 -12.2 0 -17.8 63 63 WNW 13 20 30.53 1034 10 16.0934 0 0
5:56 pm 17:56 Clear 6 -14.4 -1 -18.3 73 73 W 9 15 30.55 1035 10 16.0934 0 0
6:56 pm 18:56 Clear 5 -15 -2 -18.9 72 72 W 10 17 30.56 1035 10 16.0934 0 0
7:25 pm 19:25 Mostly Cloudy 5 -15 0 -18 78 78 W 10 17 30.62 1037 10 16.0934 0 0
7:56 pm 19:56 Cloudy 9 -12.8 1 -17.2 70 70 WNW 12 19 30.58 1036 10 16.0934 0 0
8:38 pm 20:38 Cloudy with Light Snow 10 -12 3 -16 72 72 W 10 17 30.59 1036 9 14.48406 0.001 0.001
8:56 pm 20:56 Cloudy with Light Snow 10 -12.2 3 -16.1 73 73 W 12 19 30.58 1035 9 14.48406 0.001 0.001
9:56 pm 21:56 Cloudy with Light Snow 11 -11.7 5 -15 77 77 W 9 15 30.57 1035 9 14.48406 0.001 0.001
10:56 pm 22:56 Cloudy with Light Snow 10 -12.2 5 -15 80 80 WSW 10 17 30.57 1035 8 12.87472 0.001 0.001
11:26 pm 23:26 Cloudy with Light Snow 10 -12 7 -14 85 85 W 10 17 30.59 1036 4 6.43736 0.001 0.001
11:56 pm 23:56 Cloudy with Light Snow 10 -12.2 6 -14.4 84 84 W 9 15 30.56 1035 7 11.26538 0.001 0.001

Powered by AerisWeather